Total_Precipitation_Accumulation
2.01 2.41 3.05 4.03 4.43 5.08 5.05 4.66 4.29 4.10 4.01 3.94 3.91 3.92 4.03 4.19 4.33 4.27 3.98 3.87 3.79 3.79 3.94 3.79 3.72 3.50 3.45 3.52 3.49 3.34 3.24 3.07 3.00 2.86 2.52 2.06 1.67 1.51 1.46 1.53 1.58 1.53 1.52
2.13 2.74 3.22 3.70 3.97 4.13 4.39 4.71 4.68 4.60 4.30 4.20 4.44 4.87 5.09 5.01 5.05 4.99 4.87 4.67 4.48 4.42 4.31 4.18 3.94 3.71 3.53 3.35 3.28 3.21 3.10 2.91 2.91 2.90 2.80 2.41 2.07 1.65 1.33 1.45 1.50 1.50 1.58
1.89 2.51 3.04 3.41 3.83 4.13 4.20 4.48 4.59 4.74 4.92 5.04 5.20 5.62 5.89 5.75 5.50 5.12 4.94 4.75 4.44 4.29 4.13 4.03 3.84 3.69 3.52 3.31 3.27 3.22 3.14 3.00 2.97 2.98 3.06 2.83 2.35 1.87 1.54 1.42 1.42 1.51 1.60
1.87 2.22 2.61 2.85 3.22 3.50 3.81 4.15 4.36 4.56 5.07 5.78 6.08 6.09 6.13 5.97 5.64 5.29 4.97 4.62 4.30 4.03 3.85 3.84 3.75 3.57 3.38 3.22 3.00 2.96 3.04 3.12 2.97 2.86 2.66 2.52 2.29 2.15 1.88 1.63 1.52 1.49 1.51
1.85 2.00 2.05 2.33 2.74 2.96 3.19 3.64 4.09 4.55 5.20 5.76 6.07 6.27 6.15 5.90 5.60 5.14 4.80 4.43 4.09 3.73 3.48 3.43 3.33 3.14 2.96 2.83 2.69 2.62 2.69 2.79 2.78 2.74 2.62 2.51 2.34 2.14 2.01 1.82 1.67 1.61 1.51
1.71 1.80 1.91 2.06 2.30 2.54 2.80 3.07 3.68 4.40 4.85 5.24 5.57 5.72 5.77 5.65 5.34 4.87 4.55 4.21 3.84 3.50 3.19 2.89 2.80 2.75 2.56 2.32 2.28 2.28 2.27 2.34 2.44 2.52 2.46 2.30 2.20 2.10 2.09 1.98 1.82 1.75 1.63
1.57 1.80 1.87 2.00 2.24 2.48 2.81 3.11 3.53 4.09 4.40 4.51 4.68 4.94 5.09 5.05 4.94 4.72 4.41 3.99 3.49 3.02 2.75 2.52 2.39 2.32 2.24 2.11 2.03 2.01 1.88 1.89 1.97 2.00 2.13 2.12 2.02 1.91 1.96 2.06 2.01 1.84 1.67
1.71 1.79 1.82 1.94 2.20 2.41 2.57 2.91 3.15 3.67 3.93 3.82 3.92 4.17 4.38 4.35 4.22 4.01 3.59 3.21 2.85 2.52 2.28 2.17 2.03 1.82 1.66 1.59 1.62 1.66 1.65 1.64 1.66 1.65 1.81 1.90 1.89 1.86 1.86 1.90 2.09 2.04 1.80
1.69 1.79 1.76 1.81 2.00 2.17 2.35 2.50 2.65 3.02 3.29 3.25 3.28 3.34 3.35 3.34 3.26 3.08 2.78 2.49 2.21 1.95 1.82 1.74 1.73 1.63 1.50 1.41 1.37 1.40 1.49 1.50 1.47 1.47 1.56 1.63 1.61 1.62 1.68 1.75 1.91 2.08 1.98
1.56 1.65 1.70 1.71 1.65 1.70 1.95 2.18 2.21 2.33 2.46 2.49 2.54 2.55 2.58 2.67 2.58 2.31 2.06 1.94 1.82 1.65 1.51 1.42 1.41 1.43 1.40 1.38 1.43 1.41 1.43 1.48 1.40 1.34 1.32 1.33 1.30 1.35 1.40 1.51 1.63 1.79 1.92
1.51 1.59 1.64 1.63 1.50 1.40 1.48 1.75 1.91 1.89 1.96 2.11 2.19 2.11 2.09 2.04 1.96 1.84 1.67 1.61 1.54 1.43 1.34 1.26 1.20 1.20 1.25 1.26 1.30 1.27 1.23 1.18 1.14 1.11 1.10 1.12 1.17 1.26 1.26 1.29 1.44 1.65 1.83
1.63 1.63 1.74 1.62 1.50 1.49 1.49 1.56 1.66 1.70 1.69 1.72 1.88 1.94 1.87 1.71 1.62 1.55 1.48 1.39 1.31 1.25 1.21 1.10 1.03 1.00 1.00 1.00 1.02 1.05 1.05 1.05 1.00 1.02 1.07 1.07 1.09 1.16 1.21 1.27 1.35 1.49 1.72
1.86 1.79 1.75 1.60 1.54 1.55 1.48 1.40 1.43 1.49 1.50 1.49 1.55 1.57 1.52 1.44 1.36 1.33 1.34 1.25 1.18 1.12 1.06 1.02 1.01 0.94 0.92 0.89 0.87 0.90 0.97 0.96 0.92 0.95 1.01 1.06 1.18 1.18 1.19 1.26 1.31 1.41 1.54
1.91 1.77 1.74 1.67 1.59 1.56 1.45 1.38 1.34 1.28 1.22 1.27 1.31 1.32 1.33 1.31 1.26 1.17 1.15 1.13 1.10 1.08 1.03 1.01 0.95 0.91 0.87 0.85 0.83 0.84 0.89 0.90 0.89 0.94 0.99 1.04 1.17 1.25 1.28 1.29 1.33 1.39 1.52
1.94 1.81 1.80 1.79 1.74 1.70 1.57 1.44 1.35 1.31 1.24 1.21 1.17 1.21 1.27 1.28 1.23 1.22 1.19 1.14 1.06 1.00 1.00 0.99 0.94 0.89 0.84 0.80 0.78 0.78 0.81 0.90 0.92 0.90 0.90 0.93 1.05 1.15 1.15 1.07 1.12 1.29 1.52
2.12 2.13 2.13 2.09 2.02 1.94 1.75 1.56 1.45 1.33 1.25 1.24 1.20 1.21 1.22 1.18 1.17 1.17 1.14 1.10 1.04 1.00 0.98 0.97 0.93 0.86 0.73 0.76 0.77 0.75 0.80 0.85 0.88 0.86 0.86 0.81 0.81 0.81 0.83 0.88 0.94 1.09 1.37
2.43 2.50 2.44 2.35 2.22 2.10 2.00 1.82 1.65 1.51 1.44 1.36 1.25 1.23 1.20 1.11 1.07 1.00 0.99 1.04 1.03 0.97 0.91 0.88 0.90 0.86 0.78 0.73 0.68 0.71 0.78 0.86 0.91 0.94 0.91 0.73 0.63 0.74 0.80 0.85 0.90 1.03 1.21
2.33 2.37 2.33 2.33 2.25 2.13 2.01 1.84 1.66 1.54 1.42 1.31 1.20 1.15 1.13 1.06 1.05 1.04 1.03 1.03 1.00 0.95 0.95 0.92 0.93 0.92 0.79 0.71 0.65 0.68 0.74 0.84 0.87 0.88 0.91 0.91 0.84 0.80 0.89 0.95 1.02 1.14 1.26
2.21 2.25 2.30 2.31 2.26 2.14 1.95 1.78 1.64 1.50 1.42 1.30 1.12 1.02 0.99 0.93 0.94 0.98 1.00 0.97 0.95 0.92 0.88 0.88 0.90 0.97 0.89 0.77 0.68 0.65 0.71 0.80 0.81 0.77 0.77 0.77 0.80 0.88 1.06 1.17 1.35 1.46 1.56
2.15 2.24 2.33 2.37 2.28 2.16 1.86 1.69 1.54 1.37 1.22 1.06 0.94 0.91 0.92 0.85 0.85 0.88 0.87 0.85 0.86 0.86 0.82 0.79 0.83 0.87 0.83 0.69 0.59 0.56 0.62 0.75 0.79 0.81 0.79 0.73 0.68 0.81 0.99 1.23 1.52 1.67 1.73
2.10 2.18 2.18 2.16 2.11 2.01 1.77 1.65 1.48 1.32 1.07 0.89 0.81 0.84 0.85 0.79 0.75 0.78 0.79 0.79 0.75 0.78 0.79 0.76 0.76 0.72 0.63 0.55 0.49 0.48 0.52 0.62 0.73 0.79 0.86 0.83 0.75 0.80 1.01 1.23 1.43 1.59 1.63
1.86 1.97 2.01 1.99 1.88 1.75 1.59 1.47 1.34 1.12 0.92 0.81 0.78 0.83 0.84 0.64 0.56 0.66 0.69 0.70 0.75 0.76 0.77 0.77 0.71 0.60 0.56 0.48 0.45 0.46 0.46 0.49 0.65 0.83 0.85 0.85 0.81 0.83 1.03 1.20 1.45 1.67 1.76
1.60 1.64 1.56 1.48 1.50 1.45 1.32 1.21 1.11 0.94 0.82 0.78 0.79 0.79 0.75 0.67 0.59 0.63 0.64 0.69 0.74 0.71 0.67 0.69 0.67 0.56 0.53 0.48 0.43 0.45 0.49 0.51 0.58 0.74 0.82 0.83 0.82 0.95 1.25 1.42 1.58 1.75 1.87
1.26 1.28 1.24 1.17 1.14 1.13 1.05 0.95 0.83 0.79 0.80 0.81 0.80 0.78 0.74 0.66 0.60 0.61 0.57 0.59 0.63 0.62 0.59 0.60 0.61 0.58 0.54 0.48 0.45 0.50 0.56 0.60 0.63 0.73 0.87 0.95 0.98 1.14 1.44 1.65 1.83 1.88 1.80
0.98 0.97 1.01 0.97 0.86 0.80 0.79 0.77 0.70 0.68 0.76 0.77 0.72 0.70 0.62 0.59 0.58 0.53 0.42 0.40 0.41 0.42 0.48 0.54 0.54 0.51 0.48 0.43 0.46 0.48 0.50 0.56 0.59 0.67 0.86 1.04 1.15 1.32 1.52 1.69 1.76 1.74 1.64
0.83 0.88 0.91 0.86 0.78 0.73 0.69 0.64 0.56 0.57 0.67 0.71 0.68 0.62 0.56 0.53 0.50 0.52 0.43 0.35 0.32 0.30 0.29 0.33 0.34 0.37 0.42 0.43 0.44 0.44 0.48 0.52 0.59 0.67 0.88 1.03 1.11 1.28 1.49 1.62 1.59 1.49 1.41